Weather Roundup
Issued by NWS Corpus Christi, TX

Home | Current Version | Previous Version | Text Only | Print | Product List | Glossary On
Versions: 1 2 3 4 5 6 7 8 9 10 11 12 13 14 15 16 17 18 19 20 21 22 23 24 25 26 27 28 29 30 31 32 33 34 35 36 37 38 39 40 41 42 43 44 45 46 47 48 49 50
000
ASUS44 KCRP 021910
HRRCRP

SOUTH TEXAS REGIONAL WEATHER ROUNDUP
NATIONAL WEATHER SERVICE CORPUS CHRISTI TX
200 PM CDT THU JUL 02 2015


TXZ229>244-022000-
...CORPUS CHRISTI AREA OBSERVATIONS...

CITY           SKY/WX    TMP DP  RH WIND       PRES   REMARKS
CORPUS CHRISTI PTSUNNY   86  75  69 SE16      30.00F HX  95
NAS CORPUS CHR PTSUNNY   87  78  74 S18       30.02F HX 100
ROCKPORT       LGT RAIN  89  76  65 SE18      30.01F HX 100
KINGSVILLE NAS LGT RAIN  76  75  97 S17       30.02R
ALICE          RAIN      75  72  90 S21G41    30.02R VSB 3/4
FALFURRIAS     PTSUNNY   74  71  91 SE8       30.00
$$

...VICTORIA AREA OBSERVATIONS...

CITY           SKY/WX    TMP DP  RH WIND       PRES   REMARKS
VICTORIA       PTSUNNY   90  73  57 S16G26    30.02S HX  98
BEEVILLE       FAIR      88  76  67 SE17G24   30.00  HX  98
PLEASANTON     MOSUNNY   90  71  53 SE17      29.99  HX  95
SAN ANTONIO    PTSUNNY   88  71  57 S16       30.00F HX  94
$$

...LAREDO AREA OBSERVATIONS...

CITY           SKY/WX    TMP DP  RH WIND       PRES   REMARKS
LAREDO         PTSUNNY   93  68  44 SE22G28   29.95F HX  97
COTULLA        MOSUNNY   89  72  56 S13G22    29.96F HX  96
DEL RIO        MOSUNNY   85  68  56 SE17      29.95F
MCALLEN        LGT RAIN  86  69  56 SE17      29.98F HX  90
HEBBRONVILLE     N/A     90  70  52 SE15G24   29.98F HX  95
$$

...OTHER TEXAS OBSERVATIONS...

CITY           SKY/WX    TMP DP  RH WIND       PRES   REMARKS
BROWNSVILLE    PTSUNNY   85  72  65 SE12      30.00F HX  91
HOUSTON        PTSUNNY   91  72  53 S9        30.01F HX  98
COL. STATION   PTSUNNY   88  73  61 SW10      30.01F HX  95
AUSTIN         MOSUNNY   87  72  60 S16G22    30.00F HX  93
WACO           MOSUNNY   89  68  49 S20G25    29.99F HX  93
FORT WORTH     PTSUNNY   90  66  45 S17G26    29.95F HX  92
WICHITA FALLS  MOSUNNY   89  69  51 S15       29.92S HX  93
LUBBOCK        PTSUNNY   90  63  40 SE8       30.01F HX  91
EL PASO        MOSUNNY   95  51  22 VRB3      29.99F HX  92
$$

...MARINE OBSERVATIONS...

STATION/POSITION TIME  SKY/WX   TEMP    WIND        PRES    VSBY  WAVE   SWELL
                                AIR SEA DIR/SP/G                  HT/PER HT/PER
                 (UTC)          (F)     (DEG/KT/KT) (MB)    (MI)  (FT/S) (FT/S)
PORT ARANSAS     1800            82 79  130/ 13/ 14 1017.4F
BUOY 90 E PORT A NOT AVBL
BUOY 45 SE BAFFI 1850            84 84  150/ 17/ 21 1015.8F         4/ 7   2/ 7
BUOY 200 E PT IS 1850            85 84  120/ 16/ 19 1017.1F         4/ 6   2/ 7
BUOY 15 E GALVES 1850            84 83  160/ 10/ 12 1017.0F         3/ 6   2/ 6
$$



USA.gov is the U.S. government's official web portal to all federal, state and local government web resources and services.